When you browse on this site, cookies collect data to enhance your experience and personalize the content and advertising you see.
Visit our Privacy Policy to learn more. By continuing to use the site, you agree to this use of cookies and data.
  • In Latvia
  • List of Countries
  • For 7 days
  • Water Temperature
  • Weather Map
  • Weather Widgets
  • user-avatar
    Login

    Hourly Weather Leribe

    Today, 21 September, Saturday

    Time Temperature Precipitation Wind Pressure Humidity
    00:00 +15°C° 0 mm 1 mps 631 mmHg 31%
    01:00 +14°C° 0 mm 1 mps 631 mmHg 31%
    02:00 +12°C° 0 mm 0 mps 630 mmHg 33%
    03:00 +12°C° 0 mm 1 mps 630 mmHg 35%
    04:00 +12°C° 0 mm 1 mps 630 mmHg 36%
    05:00 +12°C° 0 mm 1 mps 630 mmHg 37%
    06:00 +15°C° 0 mm 1 mps 631 mmHg 31%
    07:00 +19°C° 0 mm 1 mps 632 mmHg 24%
    08:00 +23°C° 0 mm 1 mps 633 mmHg 17%
    09:00 +25°C° 0 mm 3 mps 634 mmHg 16%
    10:00 +27°C° 0 mm 4 mps 634 mmHg 14%
    11:00 +29°C° 0 mm 5 mps 634 mmHg 12%
    12:00 +30°C° 0 mm 6 mps 634 mmHg 11%
    13:00 +32°C° 0 mm 7 mps 633 mmHg 11%
    14:00 +32°C° 0 mm 7 mps 632 mmHg 11%
    15:00 +32°C° 0 mm 7 mps 632 mmHg 11%
    16:00 +30°C° 0 mm 7 mps 632 mmHg 11%
    17:00 +30°C° 0 mm 6 mps 631 mmHg 12%
    18:00 +26°C° 0 mm 5 mps 631 mmHg 15%
    19:00 +22°C° 0 mm 4 mps 630 mmHg 18%
    20:00 +19°C° 0 mm 2 mps 629 mmHg 22%
    21:00 +18°C° 0 mm 2 mps 629 mmHg 24%
    22:00 +16°C° 0 mm 2 mps 628 mmHg 27%
    23:00 +15°C° 0 mm 1 mps 628 mmHg 30%

    Tomorrow, 22 September, Sunday

    Time Temperature Precipitation Wind Pressure Humidity
    00:00 +14°C° 0 mm 1 mps 627 mmHg 31%
    01:00 +14°C° 0 mm 2 mps 627 mmHg 32%
    02:00 +13°C° 0 mm 2 mps 627 mmHg 33%
    03:00 +12°C° 0 mm 2 mps 627 mmHg 35%
    04:00 +12°C° 0 mm 2 mps 627 mmHg 37%
    05:00 +10°C° 0 mm 2 mps 627 mmHg 39%
    06:00 +14°C° 0 mm 2 mps 628 mmHg 35%
    07:00 +17°C° 0 mm 2 mps 629 mmHg 30%
    08:00 +20°C° 0 mm 3 mps 630 mmHg 26%
    09:00 +23°C° 0 mm 4 mps 631 mmHg 22%
    10:00 +26°C° 0 mm 6 mps 631 mmHg 19%
    11:00 +28°C° 0 mm 8 mps 632 mmHg 15%
    12:00 +29°C° 0 mm 8 mps 631 mmHg 14%
    13:00 +31°C° 0 mm 8 mps 631 mmHg 12%
    14:00 +31°C° 0 mm 8 mps 630 mmHg 10%
    15:00 +31°C° 0 mm 8 mps 630 mmHg 10%
    16:00 +29°C° 0 mm 8 mps 630 mmHg 10%
    17:00 +29°C° 0 mm 8 mps 630 mmHg 9%
    18:00 +24°C° 0 mm 6 mps 630 mmHg 16%
    19:00 +20°C° 0 mm 4 mps 629 mmHg 22%
    20:00 +17°C° 0 mm 2 mps 629 mmHg 29%
    21:00 +15°C° 0 mm 2 mps 629 mmHg 36%
    22:00 +14°C° 0 mm 2 mps 629 mmHg 42%
    23:00 +12°C° 0 mm 1 mps 629 mmHg 49%

    Day after tomorrow, 23 September, Monday

    Time Temperature Precipitation Wind Pressure Humidity
    00:00 +11°C° 0 mm 1 mps 629 mmHg 53%
    01:00 +10°C° 0 mm 1 mps 629 mmHg 58%
    02:00 +8°C° 0 mm 0 mps 629 mmHg 63%
    03:00 +9°C° 0 mm 1 mps 629 mmHg 67%
    04:00 +9°C° 0 mm 1 mps 629 mmHg 72%
    05:00 +8°C° 0 mm 1 mps 629 mmHg 76%
    06:00 +11°C° 0 mm 1 mps 630 mmHg 69%
    07:00 +13°C° 0 mm 2 mps 631 mmHg 62%
    08:00 +16°C° 0 mm 2 mps 632 mmHg 56%
    09:00 +19°C° 0 mm 2 mps 633 mmHg 45%
    10:00 +23°C° 0 mm 2 mps 634 mmHg 35%
    11:00 +26°C° 0 mm 3 mps 634 mmHg 25%
    12:00 +27°C° 0 mm 3 mps 634 mmHg 22%
    13:00 +28°C° 0 mm 4 mps 634 mmHg 19%
    14:00 +30°C° 0 mm 5 mps 634 mmHg 16%
    15:00 +29°C° 0 mm 5 mps 634 mmHg 17%
    16:00 +28°C° 0 mm 5 mps 634 mmHg 18%
    17:00 +27°C° 0 mm 4 mps 633 mmHg 19%
    18:00 +23°C° 0.2 mm 4 mps 633 mmHg 31%
    19:00 +19°C° 0.2 mm 3 mps 632 mmHg 42%
    20:00 +15°C° 0.2 mm 2 mps 632 mmHg 54%
    21:00 +14°C° 0 mm 2 mps 632 mmHg 58%
    22:00 +13°C° 0 mm 2 mps 632 mmHg 63%
    23:00 +12°C° 0 mm 2 mps 632 mmHg 67%

    24 September, Tuesday

    Time Temperature Precipitation Wind Pressure Humidity
    00:00 +10°C° 0 mm 2 mps 632 mmHg 68%
    01:00 +10°C° 0 mm 2 mps 631 mmHg 68%
    02:00 +9°C° 0 mm 2 mps 631 mmHg 69%
    03:00 +9°C° 0 mm 2 mps 631 mmHg 71%
    04:00 +10°C° 0 mm 1 mps 630 mmHg 74%
    05:00 +9°C° 0 mm 1 mps 630 mmHg 77%
    06:00 +12°C° 0 mm 1 mps 631 mmHg 68%
    07:00 +14°C° 0 mm 1 mps 632 mmHg 60%
    08:00 +18°C° 0 mm 1 mps 633 mmHg 51%
    09:00 +19°C° 0 mm 2 mps 634 mmHg 46%
    10:00 +21°C° 0 mm 3 mps 634 mmHg 41%
    11:00 +24°C° 0 mm 3 mps 634 mmHg 37%
    12:00 +25°C° 0 mm 4 mps 634 mmHg 33%
    13:00 +26°C° 0 mm 4 mps 633 mmHg 30%
    14:00 +27°C° 0 mm 4 mps 633 mmHg 27%
    15:00 +26°C° 0 mm 4 mps 633 mmHg 26%
    16:00 +26°C° 0 mm 4 mps 633 mmHg 25%
    17:00 +25°C° 0 mm 4 mps 633 mmHg 24%
    18:00 +22°C° 0 mm 3 mps 633 mmHg 33%
    19:00 +19°C° 0 mm 2 mps 633 mmHg 42%
    20:00 +16°C° 0 mm 1 mps 633 mmHg 50%
    21:00 +14°C° 0.1 mm 2 mps 632 mmHg 60%
    22:00 +12°C° 0.1 mm 2 mps 632 mmHg 69%
    23:00 +10°C° 0.1 mm 2 mps 632 mmHg 78%

    25 September, Wednesday

    Time Temperature Precipitation Wind Pressure Humidity
    00:00 +9°C° 0 mm 2 mps 632 mmHg 81%
    01:00 +8°C° 0 mm 2 mps 632 mmHg 83%
    02:00 +8°C° 0 mm 2 mps 632 mmHg 86%
    03:00 +7°C° 0 mm 2 mps 632 mmHg 87%
    04:00 +7°C° 0 mm 2 mps 632 mmHg 87%
    05:00 +7°C° 0 mm 2 mps 632 mmHg 88%
    06:00 +8°C° 0 mm 2 mps 633 mmHg 79%
    07:00 +10°C° 0 mm 2 mps 635 mmHg 70%
    08:00 +13°C° 0 mm 2 mps 636 mmHg 61%
    09:00 +16°C° 0 mm 1 mps 637 mmHg 51%
    10:00 +20°C° 0 mm 1 mps 637 mmHg 41%
    11:00 +23°C° 0 mm 1 mps 638 mmHg 30%
    12:00 +24°C° 0 mm 2 mps 638 mmHg 26%
    13:00 +25°C° 0 mm 2 mps 638 mmHg 22%
    14:00 +26°C° 0 mm 3 mps 638 mmHg 18%
    15:00 +23°C° 0 mm 4 mps 637 mmHg 22%
    16:00 +22°C° 0 mm 6 mps 637 mmHg 25%
    17:00 +20°C° 0 mm 8 mps 636 mmHg 28%
    18:00 +17°C° 0 mm 6 mps 636 mmHg 33%
    19:00 +14°C° 0 mm 5 mps 636 mmHg 38%
    20:00 +11°C° 0 mm 3 mps 635 mmHg 43%
    21:00 +10°C° 0 mm 3 mps 635 mmHg 45%
    22:00 +8°C° 0 mm 2 mps 635 mmHg 47%
    23:00 +7°C° 0 mm 2 mps 635 mmHg 50%

    26 September, Thursday

    Time Temperature Precipitation Wind Pressure Humidity
    00:00 +7°C° 0 mm 2 mps 635 mmHg 52%
    01:00 +6°C° 0 mm 2 mps 634 mmHg 55%
    02:00 +5°C° 0 mm 2 mps 634 mmHg 58%
    03:00 +6°C° 0 mm 1 mps 634 mmHg 60%
    04:00 +5°C° 0 mm 1 mps 634 mmHg 61%
    05:00 +5°C° 0 mm 1 mps 633 mmHg 62%
    06:00 +7°C° 0 mm 1 mps 634 mmHg 54%
    07:00 +10°C° 0 mm 1 mps 635 mmHg 45%
    08:00 +11°C° 0 mm 0 mps 636 mmHg 36%
    09:00 +15°C° 0 mm 1 mps 637 mmHg 32%
    10:00 +18°C° 0 mm 2 mps 637 mmHg 27%
    11:00 +21°C° 0 mm 2 mps 637 mmHg 22%
    12:00 +24°C° 0 mm 2 mps 637 mmHg 20%
    13:00 +25°C° 0 mm 2 mps 637 mmHg 18%
    14:00 +27°C° 0 mm 1 mps 637 mmHg 16%
    15:00 +26°C° 0 mm 1 mps 637 mmHg 16%
    16:00 +26°C° 0 mm 2 mps 637 mmHg 15%
    17:00 +26°C° 0 mm 2 mps 636 mmHg 15%
    18:00 +21°C° 0 mm 2 mps 635 mmHg 16%
    19:00 +17°C° 0 mm 2 mps 635 mmHg 18%
    20:00 +13°C° 0 mm 1 mps 634 mmHg 19%
    21:00 +12°C° 0 mm 1 mps 633 mmHg 19%
    22:00 +11°C° 0 mm 1 mps 633 mmHg 19%
    23:00 +10°C° 0 mm 1 mps 633 mmHg 18%
    Show more